Location: Recife
(8.0585°S, 34.8848°W)
Time: 11:50:42
(UTC-03:00)

Tiros 1 - Pass Details

Date: 19 April 2026
Orbit: 618 x 648 km, 48.4° (Epoch: 11 May)

Event Time Altitude Azimuth Distance (km) Brightness Sun altitude
Rises 17:23:45 0° 335° (NNW) 2,932 11.1 -2.8°
Reaches altitude 10° 17:26:11 10° 343° (NNW) 2,030 10.1 -3.4°
Maximum altitude 17:30:33 39° 52° (NE) 973 7.8 -4.5°
Drops below altitude 10° 17:34:57 10° 120° (ESE) 2,046 9.1 -5.6°
Enters shadow 17:36:15 - 125° (SE) 2,527 9.6 -5.9°
Sets 17:37:24 0° 128° (SE) 2,959 - -6.2°
